GFSNIL_sfc_wetblb_132.txt.gz
Wetbulb
67.54 67.38 66.73 65.70 65.33 64.76 63.77 63.65 65.71 65.99 64.66 65.26 64.49 63.23 61.37 60.35 60.58 59.98 60.27 59.47 59.01 58.33
61.90 61.66 61.76 61.83 62.59 62.18 61.67 63.89 63.88 63.11 63.69 63.45 63.92 62.80 61.42 60.56 59.60 59.96 58.67 58.14 57.84 57.10
59.45 60.03 59.79 60.03 60.55 59.10 58.77 59.06 60.22 61.28 62.04 62.83 62.71 62.62 61.48 59.87 59.63 58.69 58.88 58.93 58.33 58.18
56.69 56.99 56.89 56.68 56.65 57.04 58.66 59.05 58.94 59.12 59.61 60.05 60.36 60.68 61.26 61.26 61.47 60.34 59.31 58.91 58.90 58.65
54.12 54.13 53.83 54.13 54.28 55.23 55.40 57.12 58.28 58.70 58.47 58.85 58.77 58.47 58.70 58.33 57.82 58.53 59.23 59.45 58.87 59.16
51.77 52.00 52.25 52.82 53.65 53.56 53.86 53.93 53.93 55.20 55.30 56.38 55.34 54.30 53.81 54.32 54.99 54.79 54.96 55.66 55.95 56.43
49.55 49.39 49.47 50.46 51.08 51.78 53.14 52.16 51.86 51.74 52.62 53.28 53.54 53.68 54.10 53.67 51.00 50.01 51.16 52.19 51.93 51.95
49.10 48.74 48.78 48.49 48.76 49.25 49.50 50.05 50.99 50.76 50.93 50.53 51.00 52.63 48.53 48.34 47.46 46.78 47.58 48.67 50.20 50.65
47.77 47.26 45.74 45.75 45.63 46.41 46.47 46.75 47.14 47.41 47.80 47.34 50.52 45.75 46.61 46.59 44.19 44.39 44.57 44.67 46.77 47.72
46.61 45.95 45.14 45.23 44.50 43.66 42.97 42.59 42.82 43.65 44.08 43.84 44.22 44.80 43.53 44.70 41.89 41.77 42.56 43.65 44.12 45.05
44.84 43.64 42.88 42.10 40.99 40.62 39.75 39.05 39.27 39.65 40.17 40.07 41.45 43.19 42.21 43.20 41.13 40.60 40.69 41.40 42.11 42.19
42.12 40.49 40.18 38.34 36.94 37.14 36.97 36.88 37.21 38.26 38.02 37.69 38.31 40.42 40.24 40.67 39.70 40.61 41.33 41.58 42.03 42.17
39.04 36.97 36.20 35.03 34.44 34.91 35.51 36.85 38.38 38.03 38.48 39.56 39.02 40.29 40.67 41.31 41.69 40.42 40.33 41.24 41.56 42.96
35.78 34.43 34.85 34.84 35.65 36.68 36.84 37.16 37.53 37.63 38.09 38.83 39.94 40.69 40.62 40.56 40.96 40.76 40.49 40.68 41.37 42.50

GFSNIL_sfc_wetblb_138.txt.gz
Wetbulb
61.64 61.43 61.16 60.38 59.88 59.65 61.06 61.77 63.04 64.22 64.71 65.16 65.45 66.08 65.75 64.66 64.37 63.59 63.52 62.76 62.38 62.34
58.73 58.48 58.25 58.76 58.85 59.00 59.26 60.94 60.35 60.70 61.05 62.05 62.77 63.23 63.08 62.26 61.99 62.11 62.17 62.23 61.83 60.50
56.58 57.33 57.29 56.67 56.53 57.38 57.46 57.48 58.18 58.25 58.27 58.84 59.47 60.00 60.61 60.92 61.54 61.38 60.70 60.82 60.51 60.37
54.67 53.55 53.69 53.17 53.27 53.91 54.71 54.54 54.61 55.33 55.76 56.41 56.57 56.91 57.12 57.80 59.36 58.00 58.95 60.22 60.62 60.61
49.51 49.61 49.29 49.71 50.29 51.45 51.18 51.59 52.17 52.79 53.17 53.45 53.88 54.68 54.94 54.91 55.74 56.90 56.68 57.29 57.44 57.46
47.21 47.32 46.85 47.27 48.12 49.02 49.12 49.10 49.39 49.76 49.89 49.64 50.95 51.92 51.65 51.63 51.43 51.71 51.98 53.07 52.38 52.28
45.57 45.87 46.05 46.21 46.28 46.63 46.78 45.91 46.34 46.75 46.82 47.01 46.98 49.79 48.55 48.02 48.40 48.45 48.89 49.59 50.12 50.38
45.77 45.41 45.05 44.28 43.78 43.84 43.56 43.06 42.92 42.99 43.20 43.87 44.21 45.91 45.83 44.89 45.92 45.94 46.19 46.69 46.67 47.85
44.46 43.75 42.99 42.78 41.89 40.69 39.98 40.03 39.87 39.73 40.10 40.37 41.63 42.06 42.76 43.13 42.93 43.77 43.50 42.69 43.47 44.46
41.67 40.84 40.46 40.29 39.30 37.64 37.07 37.55 37.10 37.50 38.28 38.64 39.58 40.62 40.95 41.62 41.37 40.81 40.87 41.13 41.17 41.78
38.88 37.92 37.39 37.30 36.26 35.48 35.73 35.68 35.94 36.77 37.81 38.09 39.17 40.32 40.14 40.98 41.08 40.91 41.37 41.68 41.62 41.70
36.59 35.85 35.63 35.04 34.74 35.22 35.29 36.11 36.80 37.73 38.09 38.30 38.93 39.88 39.83 40.57 40.86 40.90 41.80 42.62 43.39 42.77
35.85 35.08 35.13 35.07 35.51 36.40 36.32 36.38 37.84 38.80 39.37 39.40 39.64 40.15 39.72 40.43 40.80 40.05 40.12 41.09 42.75 43.05
35.40 35.04 36.14 35.96 35.70 35.33 35.50 37.64 38.16 38.59 39.78 40.38 41.21 41.09 40.16 40.17 40.70 40.30 40.06 40.64 41.37 42.37

GFSNIL_sfc_wetblb_141.txt.gz
Wetbulb
67.42 65.20 64.13 63.85 62.67 61.65 62.12 62.61 64.16 64.37 65.16 65.87 67.11 67.93 67.96 67.90 67.57 67.95 67.84 68.96 68.31 67.96
63.09 62.51 62.10 62.33 62.28 60.96 62.00 60.69 61.55 61.64 61.91 62.24 62.61 63.46 65.60 65.32 65.85 66.31 66.67 66.89 67.23 66.23
60.56 60.50 60.22 60.20 59.77 60.07 60.18 60.39 60.13 60.04 60.60 60.43 60.57 60.78 61.46 61.26 62.61 63.15 64.79 65.46 65.26 65.26
57.08 57.56 57.70 56.87 57.17 57.48 57.38 57.16 56.88 57.02 57.31 57.38 57.73 58.96 59.59 59.56 59.80 59.66 60.42 61.42 61.85 62.25
54.31 54.52 53.75 53.64 54.81 55.35 54.48 54.90 54.30 54.50 54.57 54.34 54.75 55.94 55.72 55.66 56.19 56.41 56.52 57.86 59.06 59.23
52.91 53.01 52.60 52.48 52.73 52.81 52.44 52.11 52.09 52.21 51.84 51.74 52.10 52.11 53.58 53.46 53.12 53.81 54.59 55.35 55.80 56.24
51.93 51.73 51.35 51.04 50.73 50.23 49.92 49.44 49.17 49.25 48.68 48.97 49.05 49.51 50.54 50.98 49.85 50.73 51.81 52.77 53.61 53.90
49.90 50.00 49.52 48.63 48.23 47.62 47.13 47.00 46.93 46.80 47.16 47.52 47.72 47.90 45.61 46.70 47.72 48.22 48.77 50.10 50.30 51.01
47.95 47.82 46.69 46.52 46.23 46.23 45.81 45.78 45.78 45.52 45.71 46.34 46.41 41.77 41.62 43.25 45.72 46.98 46.83 47.00 48.00 48.69
45.07 44.50 44.68 44.89 44.92 44.29 44.64 45.09 45.05 45.07 45.23 45.50 46.31 41.40 40.89 41.61 45.51 45.51 45.78 45.57 45.81 46.47
43.16 43.15 43.23 43.30 43.33 43.67 43.86 43.94 43.82 44.28 45.39 45.61 46.11 41.65 40.44 40.91 45.97 45.27 44.51 44.20 44.18 44.55
42.38 42.16 42.62 43.23 43.19 43.47 43.50 44.08 44.50 45.92 46.05 46.25 46.83 42.46 41.09 41.94 44.91 45.63 45.81 46.18 45.49 44.19
42.16 42.49 42.99 43.15 43.10 43.47 44.15 44.52 44.23 44.20 44.58 44.90 46.53 42.64 41.08 41.27 42.31 41.88 42.49 44.55 46.03 44.15
42.26 42.40 42.90 42.95 42.88 42.64 43.94 42.78 42.88 44.56 45.59 45.80 45.42 46.67 41.48 40.93 42.05 41.83 41.96 42.47 43.86 45.85

GFSNIL_sfc_wetblb_144.txt.gz
Wetbulb
71.61 70.51 69.81 68.71 67.57 66.78 66.29 65.88 66.68 66.74 66.90 66.24 66.70 68.27 70.17 70.23 69.35 69.72 69.03 69.77 71.70 70.82
68.05 67.50 66.13 66.07 66.06 64.89 65.23 63.84 63.41 63.70 62.93 63.99 64.22 64.07 64.54 64.50 66.18 67.21 68.70 68.78 68.79 68.41
64.22 64.17 63.86 63.54 62.61 62.16 61.82 62.10 60.82 60.24 61.81 61.68 62.02 62.43 63.14 62.85 63.69 63.42 63.49 64.69 66.00 67.03
61.16 61.07 60.98 60.34 60.13 59.96 59.98 59.35 58.77 58.63 58.74 58.55 58.70 59.79 60.02 60.10 60.04 59.99 61.01 62.21 62.33 62.61
59.07 58.04 58.36 58.18 57.49 57.83 57.53 57.21 55.95 56.94 56.69 56.53 56.44 57.26 56.64 56.78 57.29 56.93 56.98 57.93 58.67 59.29
56.95 56.65 56.05 55.06 56.29 55.18 55.18 53.50 53.42 53.93 53.29 53.50 53.70 53.56 54.03 53.90 54.65 54.26 54.16 54.76 55.37 56.40
55.57 55.83 55.27 55.14 54.33 52.90 52.77 52.50 52.26 52.86 53.01 53.30 53.37 53.58 51.58 51.40 52.29 53.11 53.82 54.37 54.47 54.32
54.44 53.99 53.01 51.81 52.33 52.35 52.69 52.42 52.33 52.02 52.21 52.51 52.70 48.65 47.42 48.72 50.19 51.43 51.94 52.65 52.73 53.51
50.33 50.35 50.52 50.86 51.99 52.17 51.73 51.63 51.68 51.12 50.90 51.28 51.19 42.71 42.15 43.84 47.82 50.30 49.64 47.85 48.82 49.33
49.54 49.80 50.10 50.46 50.74 50.30 50.14 50.73 50.56 50.59 50.78 50.87 51.42 42.59 42.12 42.77 48.61 49.48 48.37 47.59 46.60 45.77
49.02 49.18 49.87 50.38 49.90 49.93 49.84 50.05 49.70 50.23 50.54 50.68 50.74 43.20 42.17 43.06 49.51 49.58 49.85 49.73 48.18 46.94
48.77 48.80 49.43 48.97 48.88 49.23 48.87 48.40 48.54 48.51 48.93 49.32 49.94 43.49 42.46 43.03 45.44 46.44 47.72 49.26 50.70 50.31
48.72 49.03 48.71 48.46 48.51 48.48 48.49 48.45 48.38 49.09 49.88 47.82 48.70 44.75 42.26 43.68 46.71 46.06 46.65 49.03 50.87 47.29
48.93 48.41 48.60 48.08 48.23 47.82 47.42 48.52 47.97 47.77 48.12 48.90 48.83 49.92 42.68 41.98 47.13 45.51 44.00 45.65 49.05 51.56

GFSNIL_sfc_wetblb_147.txt.gz
Wetbulb
72.76 71.13 69.38 70.34 69.56 68.60 67.85 67.05 67.87 67.95 67.28 67.15 66.51 66.19 66.98 65.74 69.00 70.08 68.68 69.73 70.73 71.44
69.51 69.09 68.09 68.62 68.33 66.60 66.74 65.11 65.54 64.99 64.91 64.94 64.57 64.80 65.42 64.03 65.39 66.70 66.44 66.78 68.66 66.59
66.53 65.98 65.52 65.10 63.55 63.41 63.44 62.53 62.02 61.94 61.74 61.60 61.48 61.72 62.27 62.15 63.33 63.38 62.01 61.63 64.56 64.86
62.52 62.44 62.15 61.52 61.31 61.35 61.03 60.47 59.66 59.46 59.00 58.91 59.00 59.59 59.71 59.61 58.64 58.61 59.81 60.70 60.47 60.93
60.30 60.56 59.86 59.03 58.88 58.55 58.13 58.10 56.53 56.38 55.59 55.13 55.57 56.10 55.80 55.17 55.37 55.43 55.67 55.63 55.70 55.59
59.43 59.07 58.43 57.86 57.60 56.95 55.70 55.15 55.12 55.15 54.85 55.45 55.85 55.89 55.10 53.50 53.25 54.00 54.71 55.35 55.67 55.66
56.88 56.58 55.62 55.29 55.50 55.17 55.41 55.02 55.06 55.30 55.13 55.36 55.34 53.14 50.91 50.52 51.23 52.25 53.20 54.08 54.16 53.75
53.57 54.30 53.77 54.41 54.53 55.02 54.70 54.03 54.13 54.08 54.57 54.76 54.61 48.59 47.88 48.91 49.87 51.08 52.31 52.18 51.12 51.22
52.86 53.16 52.98 53.57 53.95 53.97 53.64 53.91 53.72 53.46 53.19 53.37 50.96 43.79 43.86 45.49 48.45 50.03 50.02 50.28 49.80 50.22
52.56 52.85 53.52 54.16 53.61 52.99 52.95 53.37 52.75 52.87 52.67 52.00 48.44 43.66 43.54 44.46 49.98 50.63 51.04 51.37 51.07 50.19
52.58 52.94 53.45 53.01 52.10 52.08 52.11 51.81 51.76 51.74 51.66 51.17 49.95 44.08 43.25 44.18 50.90 50.56 50.72 50.60 50.91 51.01
52.66 52.44 52.02 51.17 51.31 50.42 50.81 50.90 51.27 51.85 51.38 51.17 51.65 44.96 43.06 45.16 48.85 48.96 49.61 50.80 51.41 50.82
52.33 51.85 50.60 50.63 50.04 49.94 50.80 50.90 50.64 50.66 51.47 49.30 50.88 45.15 43.12 44.80 48.84 48.67 48.57 49.46 50.61 48.34
51.82 50.94 50.26 50.04 49.69 50.06 50.20 49.29 49.52 49.73 50.37 51.68 50.55 50.88 42.44 41.85 46.93 45.48 44.84 46.64 49.17 51.29